Location: Tarleton Observatory
(32.2162°N, 98.0976°W)
Time: 09:39:29
(UTC-06:00)

Daily predictions for brighter satellites

Satellite Brightness Start Highest point End
(mag) Time Altitude Azimuth Time Altitude Azimuth Time Altitude Azimuth
H-2A ROCKET BODY 4.3 18:12:51 10° WSW 18:19:01 67° SSE 18:55:47 11° E
Cosmos 1408 Rocket 3.5 18:17:59 10° S 18:22:15 69° E 18:26:32 10° NNE
CSL-04 Rocket 4.3 18:18:36 10° S 18:24:07 67° WSW 18:29:37 10° NNW
CZ-4C R/B 3.4 18:23:58 10° SSE 18:27:19 18° ESE 18:30:53 10° ENE
Cosmos 1300 3.1 18:23:35 10° NNW 18:27:24 70° W 18:31:11 10° S
Cosmos 1943 Rocket 3.2 18:23:02 10° NNW 18:28:25 51° WSW 18:33:44 10° S
Cosmos 2369 Rocket 4.4 18:23:54 10° NW 18:28:51 32° WSW 18:33:50 10° SSW
Cosmos 1777 Rocket 4.2 18:23:46 10° N 18:28:52 49° ENE 18:33:56 10° SE
Tiangong 1 2.0 18:27:13 10° NNW 18:29:14 22° NNE 18:31:09 11° ENE
IRS-1A Rocket 4.2 18:26:53 10° SSE 18:32:23 73° ENE 18:37:59 10° N
Cosmos 1703 3.5 18:28:52 10° SSE 18:32:42 50° E 18:36:33 10° NNE
USA 267 3.9 18:26:33 10° SSE 18:33:01 62° SW 18:39:32 10° NW
OAO 3 Rocket 3.1 18:29:17 10° WNW 18:33:58 80° NNE 18:38:41 10° E
SPOT 3 Rocket 4.1 18:30:18 10° SE 18:34:56 35° ENE 18:39:36 10° N
Cosmos 1500 Rocket 4.3 18:32:16 10° SSE 18:36:16 33° E 18:40:16 10° NNE
Lacrosse 5 2.7 18:32:07 10° S 18:36:39 33° ESE 18:40:56 11° ENE
COSMO-SKYMED 1 2.7 18:36:13 10° N 18:40:34 83° WNW 18:44:53 10° SSW
FENGYUN 3A 3.7 18:38:41 10° SSE 18:43:54 57° ENE 18:49:08 10° N
SeaSat 1 3.8 18:40:41 10° S 18:45:22 45° WSW 18:50:05 10° NW
MOS 1 4.3 18:40:11 10° SSE 18:45:44 62° ENE 18:51:17 10° N
USA 81 4.4 18:41:40 10° SSE 18:46:37 43° E 18:51:35 10° NNE
ASTRO E2 2.7 18:43:55 10° W 18:47:54 80° S 18:51:07 15° E
Cosmos 2208 Rocket 4.2 18:45:34 10° S 18:50:36 49° ESE 18:55:44 10° NNE
Cosmos 1743 Rocket 3.5 18:47:17 10° S 18:51:37 70° E 18:55:57 10° NNE
Meteor 2-2 Rocket 4.4 18:49:25 10° N 18:55:06 77° W 19:00:42 10° S
Cosmos 1328 Rocket 3.4 18:53:46 10° N 18:58:07 74° E 19:02:25 10° S
Cosmos 371 Rocket 3.3 18:57:00 10° SSW 19:01:48 82° WNW 19:06:39 10° NNE
ISS -3.3 18:59:36 10° SSW 19:02:42 42° SE 19:03:52 29° E
Cosmos 2228 Rocket 3.1 18:58:31 10° N 19:03:03 61° E 19:07:34 10° SSE
Cosmos 1763 Rocket 4.5 19:01:43 10° SSE 19:05:44 23° E 19:06:37 22° E
Cosmos 2082 Rocket 3.3 19:01:34 10° SSE 19:05:48 22° E 19:06:43 21° E
NOSS 3-4 (A) 3.9 18:59:07 10° NNW 19:06:22 89° ENE 19:14:06 10° SSE
NOSS 3-4 (C) 3.9 18:59:12 10° NNW 19:06:28 88° ENE 19:14:12 10° SSE
Meteor 2-15 Rocket 4.4 19:05:45 10° S 19:11:43 59° E 19:17:43 10° NNE
Cosmos 2058 3.5 19:09:31 10° SSW 19:13:38 59° W 19:17:47 10° N
SEDSat Delta rocket 4.0 19:08:23 10° W 19:15:12 85° S 19:19:05 26° E
Cosmos 2098 Rocket 4.2 19:10:55 10° N 19:16:51 79° W 19:23:57 10° S
H-2A R/B 2.7 19:13:09 10° SSE 19:16:53 58° ENE 19:20:41 10° N
Cosmos 1241 Rocket 4.3 19:15:12 10° NNW 19:21:26 77° ENE 19:27:42 10° SSE
Cosmos 1570 Rocket 4.3 19:17:09 10° SSW 19:22:26 68° WNW 19:27:42 10° N
Cosmos 1455 2.4 19:20:40 10° NNW 19:24:29 69° W 19:28:14 10° S
Cosmos 1151 Rocket 3.0 19:22:12 10° N 19:26:36 83° W 19:30:57 10° S
Cosmos 1833 Rocket 3.1 19:23:07 10° S 19:28:14 37° ESE 19:29:06 35° E
Cosmos 1805 Rocket 3.8 19:27:21 10° SSE 19:31:08 44° ESE 19:31:08 44° ESE
SL-27 R/B 2.5 19:30:18 10° SSW 19:33:41 71° WNW 19:34:39 44° N
Hubble Space Telescope 1.8 19:30:06 10° SW 19:33:47 32° SSE 19:34:20 31° SSE
Cosmos 1821 Rocket 3.9 19:30:51 10° N 19:37:03 83° E 19:43:20 10° S
Cosmos 1535 Rocket 4.3 19:32:42 10° N 19:38:50 71° E 19:44:54 10° SSE
FengYun 1-2 T 4.2 19:37:25 10° SSE 19:43:04 85° WSW 19:48:42 10° NNW
ERS-2 3.8 19:46:24 10° SSW 19:49:46 35° W 19:53:10 10° NNW
Cosmos 1339 Rocket 4.5 19:45:06 10° SSE 19:50:58 53° E 19:51:16 52° E
Cosmos 304 Rocket 3.8 19:46:30 10° SSW 19:51:16 78° WNW 19:52:46 44° N
Thor Agena Rocket 3.8 19:52:56 16° N 19:57:10 69° WNW 20:02:18 10° SSW
Delta 2 Rocket 4.4 19:51:39 10° SW 19:57:10 48° SSE 19:57:17 48° SSE
Cosmos 1934 Rocket 4.2 20:04:47 10° N 20:11:08 72° W 20:17:26 10° S
Atlas Centaur 2 4.0 20:09:07 10° SSW 20:13:58 22° SSE 20:13:58 22° SSE
CZ-4C R/B 3.0 20:10:25 10° SW 20:15:13 43° NW 20:16:36 36° NNW
OAO 3 Rocket 4.3 20:12:59 10° W 20:16:56 37° SW 20:16:56 37° SW
Delta 168 4.4 20:10:29 10° WSW 20:17:34 43° S 20:17:47 43° S
Lacrosse 5 3.3 20:15:02 10° WSW 20:19:33 31° NW 20:20:11 30° NNW
Cosmos 1605 Rocket 4.5 20:13:37 10° N 20:24:56 15° S 20:25:49 10° S
Cosmos 1727 Rocket 4.1 20:22:25 10° S 20:27:51 69° SW 20:27:51 69° SW
Cosmos 2082 Rocket 3.4 20:44:13 10° SW 20:48:39 38° W 20:48:39 38° W
CZ-3C R/B 4.4 20:46:23 10° S 21:32:21 - E 20:46:56 12° S
